Location: Unspecified
(51.5147°N, 7.4673°E)
Time: 22:05:26
(UTC+01:00)

Vanguard 1 Rocket - Pass Details

Date: 21 February 2026
Orbit: 653 x 4214 km, 34.3° (Epoch: 8 March)

Event Time Altitude Azimuth Distance (km) Brightness Sun altitude
Rises 18:54:53 0° 269° (W) 5,986 13.9 -9.8°
Reaches altitude 10° 18:59:20 10° 257° (WSW) 5,477 12.9 -10.5°
Maximum altitude 19:12:14 25° 211° (SSW) 5,400 11.7 -12.5°
Drops below altitude 10° 19:29:35 10° 166° (SSE) 7,371 11.8 -15.2°
Sets 19:37:19 0° 156° (SSE) 8,433 12.0 -16.4°
